Location: Leedale
(52.5833°N, 114.4833°W)
Time: 04:59:00
(UTC+00:00)

BlueWalker 3 - Pass Details

Date: 09 August 2024
Orbit: 476 x 487 km, 53.2° (Epoch: 09 September)

Event Time Altitude Azimuth Distance (km) Brightness Sun altitude
Exits shadow 10:20:15 23° 198° (SSW) 1,077 3.0 -13.8°
Maximum altitude 10:21:58 36° 148° (SSE) 793 2.7 -13.7°
Drops below altitude 10° 10:25:30 10° 81° (E) 1,694 5.3 -13.3°
Sets 10:27:47 0° 73° (ENE) 2,580 6.6 -13.1°
